Santa Ana, CA

11:45 AM PDT on April 27, 2015 (GMT -0700)
APRSWXNET | | Change Station
CLOSE
Current Station
Personal Weather Station
Location: Santa Ana, CA
Elevation: 130 ft
Nearby Weather Stations
Active Advisory: Wind Advisory

Elev 130 ft 33.77 °N, 117.88 °W | Updated 45 minutes ago

Clear
Clear
84 °F
Feels Like 81 °F
N
4
Wind Variable Wind from NE
Gusts 0.0 mph

Today
High -- | Low -- °F
--% Chance of Precip.
Yesterday
High -- | Low -- °F
Precip. -- in
6:07 AM 7:31 PM
Waxing Gibbous, 67% visible
Pressure 29.94 in
Visibility 10.0 miles
Clouds Few 33000 ft
Heat Index 81 °F
Dew Point 22 °F
Humidity 10%
Rainfall in
Snow Depth Not available.
UV 9 out of 12
Pollen 6.60 out of 12
Air Quality Not available.
Flu Activity Sporadic
METAR KSNA 271753Z 04014G23KT 10SM FEW330 29/M09 A2994 RMK AO2 SLP136 T02891094 10289 20122 58002

More Conditions Fewer Conditions

Pressure 29.94 in
Visibility 10.0 miles
Clouds Few 33000 ft
Heat Index 81 °F
Dew Point 22 °F
Humidity 10%
Rainfall in
Snow Depth Not available.
UV 9 out of 12
Pollen 6.60 out of 12
Air Quality Not available.
Flu Activity Sporadic
METAR KSNA 271753Z 04014G23KT 10SM FEW330 29/M09 A2994 RMK AO2 SLP136 T02891094 10289 20122 58002

More Conditions Fewer Conditions

10-Day Weather Forecast

Almanac

Astronomy

Apr. 27, 2015 Rise Set
Actual Time
Civil Twilight
Nautical Twilight
Astronomical Twilight
Moon
Length of Visible Light
Length of Day
Tomorrow will be .
, % of the Moon is Illuminated

Today's Extremes

State Highs State Lows

Community

WunderPhotos

Upload Photos

1,817,398 photos uploaded!

WunderBlogs® & News

Nearby

Air Quality

  Air Quality AQ Index Pollutant
Not available.

Snow Depth

Station Depth Elevation

Earthquake Activity

City Distance Mag. Time & Date
Minimum magnitude displayed is 2.5.

Coastal Water Temperatures

Place Temperature

Stations

Nearby Weather Stations

Station Location Temp. Windchill Dew Point Humidity Wind Precip. Elev Updated Type
                   
Wind Advisory
Statement as of 11:43 AM PDT on April 27, 2015

... Wind Advisory now in effect until 2 PM PDT this afternoon...

* winds... areas of northeast winds 20 to 30 mph with gusts to 50
mph. Isolated gusts to 65 mph along the coastal slopes of the
Santa Ana Mountains.

* Timing... winds continuing strong... then diminishing by mid-
afternoon.

* Location... strongest winds below the Cajon Pass and along the
coastal foothills of the Santa Ana Mountains.

* Impacts... winds this strong can make driving difficult...
especially for high profile vehicles.

Precautionary/preparedness actions...

A Wind Advisory means that winds of 35 mph are expected. Winds
this strong can make driving difficult... especially for high
profile vehicles. Use extra caution.



Harrison